{"data":{"norad_id":67097,"intl_designator":"2025-298Y","name":"STARLINK-36222","alt_names":[],"object_type":"PAYLOAD","status":"ACTIVE","operator":null,"country":"US","launch_date":"2025-12-14","launch_site_code":"AFWTR","launch_vehicle":null,"mission":null,"orbit_class":"UNKNOWN","rcs_meters":null,"size_class":null,"mass_kg":null,"dimensions":null,"purposes":["comms"],"wikipedia_slug":null,"has_3d_model":false,"image_url":null,"decayed_at":null,"tle_current":{"epoch":"2026-05-25T03:01:12.743616Z","epoch_age_seconds":58066,"freshness":"FRESH","line1":"1 67097U 25298Y   26145.12584194  .00007193  00000+0  60961-3 0  9991","line2":"2 67097  70.0007 181.8528 0003803 267.2294  92.8429 14.98352912 24660","mean_motion":14.98352912,"eccentricity":0.0003803,"inclination_deg":70.0007,"raan_deg":181.8528,"arg_perigee_deg":267.2294,"mean_anomaly_deg":92.8429,"bstar":0.00060961,"rev_number":2466,"period_min":96.105529509593,"perigee_km":569.34190696612,"apogee_km":574.62816978851,"semimajor_km":6950.1220383773,"source":"CELESTRAK","updated_at":"2026-05-25T13:38:21.471171Z"}}}